When you browse on this site, cookies collect data to enhance your experience and personalize the content and advertising you see.
Visit our Privacy Policy to learn more. By continuing to use the site, you agree to this use of cookies and data.

Hourly Weather Tymoshivka

Today, 14 July, Tuesday

Time Temperature Precipitation Wind Pressure Humidity
00:00 +14°C° 0.4 mm 7 mps 748 mmHg 83%
01:00 +14°C° 0.4 mm 7 mps 748 mmHg 83%
02:00 +14°C° 0.4 mm 7 mps 748 mmHg 83%
03:00 +14°C° 0.3 mm 7 mps 748 mmHg 84%
04:00 +14°C° 0.3 mm 7 mps 748 mmHg 85%
05:00 +12°C° 0.3 mm 7 mps 748 mmHg 86%
06:00 +12°C° 0.7 mm 7 mps 748 mmHg 87%
07:00 +13°C° 0.7 mm 8 mps 748 mmHg 88%
08:00 +13°C° 0.7 mm 8 mps 748 mmHg 89%
09:00 +13°C° 0.9 mm 8 mps 748 mmHg 88%
10:00 +13°C° 0.9 mm 8 mps 748 mmHg 87%
11:00 +13°C° 0.9 mm 8 mps 748 mmHg 86%
12:00 +13°C° 0.2 mm 8 mps 748 mmHg 85%
13:00 +15°C° 0.2 mm 8 mps 748 mmHg 84%
14:00 +15°C° 0.2 mm 8 mps 749 mmHg 83%
15:00 +15°C° 0.2 mm 8 mps 749 mmHg 83%
16:00 +15°C° 0.2 mm 8 mps 749 mmHg 83%
17:00 +15°C° 0.2 mm 8 mps 749 mmHg 82%
18:00 +15°C° 0.1 mm 7 mps 749 mmHg 84%
19:00 +14°C° 0.1 mm 7 mps 749 mmHg 86%
20:00 +14°C° 0.1 mm 6 mps 750 mmHg 87%
21:00 +14°C° 0.1 mm 6 mps 750 mmHg 87%
22:00 +14°C° 0.1 mm 5 mps 750 mmHg 87%
23:00 +14°C° 0.1 mm 4 mps 750 mmHg 87%

Tomorrow, 15 July, Wednesday

Time Temperature Precipitation Wind Pressure Humidity
00:00 +14°C° 0.1 mm 5 mps 750 mmHg 87%
01:00 +13°C° 0.1 mm 5 mps 751 mmHg 88%
02:00 +13°C° 0.1 mm 5 mps 751 mmHg 88%
03:00 +13°C° 0 mm 5 mps 751 mmHg 87%
04:00 +13°C° 0 mm 5 mps 751 mmHg 87%
05:00 +13°C° 0 mm 4 mps 751 mmHg 86%
06:00 +14°C° 0 mm 5 mps 751 mmHg 80%
07:00 +16°C° 0 mm 5 mps 752 mmHg 74%
08:00 +19°C° 0 mm 5 mps 752 mmHg 67%
09:00 +20°C° 0 mm 5 mps 752 mmHg 61%
10:00 +22°C° 0 mm 5 mps 752 mmHg 55%
11:00 +23°C° 0 mm 5 mps 752 mmHg 49%
12:00 +23°C° 0 mm 5 mps 752 mmHg 49%
13:00 +23°C° 0 mm 5 mps 752 mmHg 48%
14:00 +25°C° 0 mm 5 mps 752 mmHg 47%
15:00 +25°C° 0 mm 5 mps 752 mmHg 50%
16:00 +23°C° 0 mm 4 mps 752 mmHg 54%
17:00 +23°C° 0 mm 4 mps 752 mmHg 57%
18:00 +21°C° 0.1 mm 3 mps 752 mmHg 62%
19:00 +20°C° 0.1 mm 3 mps 752 mmHg 67%
20:00 +18°C° 0.1 mm 3 mps 752 mmHg 73%
21:00 +18°C° 0 mm 2 mps 752 mmHg 74%
22:00 +17°C° 0 mm 2 mps 752 mmHg 76%
23:00 +17°C° 0 mm 2 mps 752 mmHg 78%

Day after tomorrow, 16 July, Thursday

Time Temperature Precipitation Wind Pressure Humidity
00:00 +16°C° 0 mm 2 mps 753 mmHg 80%
01:00 +16°C° 0 mm 2 mps 753 mmHg 82%
02:00 +16°C° 0 mm 3 mps 753 mmHg 84%
03:00 +15°C° 0 mm 2 mps 753 mmHg 85%
04:00 +15°C° 0 mm 2 mps 752 mmHg 86%
05:00 +15°C° 0 mm 2 mps 752 mmHg 87%
06:00 +17°C° 0 mm 2 mps 752 mmHg 81%
07:00 +19°C° 0 mm 2 mps 752 mmHg 74%
08:00 +21°C° 0 mm 2 mps 753 mmHg 68%
09:00 +23°C° 0 mm 2 mps 752 mmHg 63%
10:00 +24°C° 0 mm 2 mps 752 mmHg 58%
11:00 +25°C° 0 mm 2 mps 752 mmHg 53%
12:00 +26°C° 0 mm 2 mps 752 mmHg 52%
13:00 +26°C° 0 mm 2 mps 752 mmHg 50%
14:00 +27°C° 0 mm 2 mps 752 mmHg 49%
15:00 +26°C° 0 mm 1 mps 751 mmHg 50%
16:00 +26°C° 0 mm 1 mps 751 mmHg 52%
17:00 +26°C° 0 mm 1 mps 751 mmHg 53%
18:00 +24°C° 0 mm 1 mps 751 mmHg 57%
19:00 +23°C° 0 mm 1 mps 751 mmHg 62%
20:00 +19°C° 0 mm 0 mps 751 mmHg 67%
21:00 +21°C° 0 mm 1 mps 751 mmHg 68%
22:00 +21°C° 0 mm 1 mps 751 mmHg 69%
23:00 +20°C° 0 mm 1 mps 751 mmHg 70%

17 July, Friday

Time Temperature Precipitation Wind Pressure Humidity
00:00 +20°C° 0 mm 1 mps 751 mmHg 71%
01:00 +19°C° 0 mm 1 mps 751 mmHg 73%
02:00 +19°C° 0 mm 1 mps 751 mmHg 74%
03:00 +19°C° 0 mm 1 mps 751 mmHg 76%
04:00 +19°C° 0 mm 1 mps 751 mmHg 77%
05:00 +18°C° 0 mm 1 mps 751 mmHg 78%
06:00 +20°C° 0 mm 1 mps 751 mmHg 72%
07:00 +22°C° 0 mm 1 mps 751 mmHg 65%
08:00 +24°C° 0 mm 2 mps 751 mmHg 59%
09:00 +25°C° 0 mm 2 mps 751 mmHg 55%
10:00 +26°C° 0 mm 2 mps 751 mmHg 51%
11:00 +27°C° 0 mm 2 mps 751 mmHg 46%
12:00 +28°C° 0 mm 2 mps 751 mmHg 45%
13:00 +28°C° 0 mm 2 mps 751 mmHg 44%
14:00 +28°C° 0 mm 2 mps 751 mmHg 43%
15:00 +28°C° 0 mm 2 mps 751 mmHg 44%
16:00 +28°C° 0 mm 2 mps 751 mmHg 45%
17:00 +28°C° 0 mm 2 mps 751 mmHg 46%
18:00 +27°C° 0 mm 1 mps 751 mmHg 49%
19:00 +25°C° 0 mm 1 mps 751 mmHg 52%
20:00 +24°C° 0 mm 1 mps 751 mmHg 55%
21:00 +23°C° 0 mm 1 mps 751 mmHg 55%
22:00 +23°C° 0 mm 2 mps 751 mmHg 56%
23:00 +23°C° 0 mm 2 mps 751 mmHg 56%

18 July, Saturday

Time Temperature Precipitation Wind Pressure Humidity
00:00 +21°C° 0 mm 2 mps 751 mmHg 59%
01:00 +20°C° 0 mm 2 mps 751 mmHg 62%
02:00 +20°C° 0 mm 2 mps 752 mmHg 65%
03:00 +19°C° 0 mm 2 mps 752 mmHg 67%
04:00 +19°C° 0 mm 2 mps 752 mmHg 69%
05:00 +19°C° 0 mm 2 mps 752 mmHg 72%
06:00 +21°C° 0 mm 2 mps 752 mmHg 67%
07:00 +23°C° 0 mm 2 mps 752 mmHg 63%
08:00 +25°C° 0 mm 3 mps 752 mmHg 59%
09:00 +26°C° 0 mm 3 mps 752 mmHg 55%
10:00 +27°C° 0 mm 3 mps 752 mmHg 51%
11:00 +28°C° 0 mm 3 mps 752 mmHg 46%
12:00 +28°C° 0 mm 2 mps 752 mmHg 46%
13:00 +28°C° 0 mm 2 mps 752 mmHg 45%
14:00 +28°C° 0 mm 1 mps 752 mmHg 44%
15:00 +28°C° 0 mm 2 mps 752 mmHg 45%
16:00 +28°C° 0 mm 2 mps 752 mmHg 46%
17:00 +28°C° 0 mm 2 mps 751 mmHg 47%
18:00 +26°C° 0 mm 2 mps 751 mmHg 50%
19:00 +25°C° 0 mm 3 mps 752 mmHg 53%
20:00 +24°C° 0 mm 3 mps 752 mmHg 57%
21:00 +22°C° 0 mm 3 mps 752 mmHg 57%
22:00 +22°C° 0 mm 3 mps 752 mmHg 57%
23:00 +21°C° 0 mm 3 mps 752 mmHg 57%

19 July, Sunday

Time Temperature Precipitation Wind Pressure Humidity
00:00 +21°C° 0 mm 3 mps 752 mmHg 59%
01:00 +21°C° 0 mm 3 mps 752 mmHg 61%
02:00 +20°C° 0 mm 3 mps 752 mmHg 63%
03:00 +20°C° 0 mm 3 mps 752 mmHg 65%
04:00 +20°C° 0 mm 3 mps 752 mmHg 67%
05:00 +20°C° 0 mm 3 mps 752 mmHg 68%
06:00 +21°C° 0 mm 2 mps 752 mmHg 67%
07:00 +23°C° 0 mm 2 mps 751 mmHg 65%
08:00 +24°C° 0 mm 2 mps 751 mmHg 64%
09:00 +26°C° 0 mm 3 mps 751 mmHg 57%
10:00 +27°C° 0 mm 3 mps 751 mmHg 51%
11:00 +29°C° 0 mm 3 mps 751 mmHg 45%
12:00 +29°C° 0 mm 3 mps 750 mmHg 44%
13:00 +29°C° 0 mm 2 mps 750 mmHg 44%
14:00 +29°C° 0 mm 2 mps 750 mmHg 43%
15:00 +29°C° 0 mm 3 mps 749 mmHg 45%
16:00 +29°C° 0 mm 3 mps 749 mmHg 46%
17:00 +29°C° 0 mm 4 mps 749 mmHg 47%
18:00 +27°C° 0.1 mm 4 mps 749 mmHg 53%
19:00 +26°C° 0.1 mm 3 mps 749 mmHg 58%
20:00 +24°C° 0.1 mm 3 mps 749 mmHg 63%
21:00 +22°C° 1.4 mm 4 mps 749 mmHg 72%
22:00 +21°C° 1.4 mm 4 mps 749 mmHg 81%
23:00 +20°C° 1.4 mm 4 mps 749 mmHg 90%
Show more